Location: Unspecified
(0.0000°N, 0.0000°E)
Time: 03:55:08
(UTC+00:00)

QB50P2 - Pass Details

Date: 26 March 2026
Orbit: 517 x 528 km, 98.1° (Epoch: 20 April)

Event Time Altitude Azimuth Distance (km) Brightness Sun altitude
Rises 05:13:36 0° 356° (N) 2,625 ? -13.0°
Reaches altitude 10° 05:15:50 10° 346° (NNW) 1,743 ? -12.5°
Maximum altitude 05:19:12 32° 282° (WNW) 908 ? -11.6°
Drops below altitude 10° 05:22:36 10° 218° (SW) 1,757 ? -10.8°
Sets 05:24:52 0° 207° (SSW) 2,650 ? -10.2°
